W7YP Weather Reports


Display with metric or nautical units.
time (UTC)temp
F
wind
direction
speed
MPH
gust
MPH
rain 1hr
in
rain 24hr
in
rain mn
in
humidity
%
barometer
mb
20260507174602 55 116 0.0 2.0 0.00 0.37 0.35 89 1015.3
20260507174102 55 116 0.0 3.0 0.00 0.37 0.35 89 1015.3
20260507173552 55 150 1.0 4.0 0.00 0.37 0.35 88 1015.4
20260507173055 55 163 0.0 4.0 0.00 0.37 0.35 88 1015.4
20260507172553 55 71 0.0 1.0 0.00 0.37 0.35 91 1015.3
20260507172048 55 70 0.0 4.0 0.00 0.37 0.35 92 1015.3
20260507171547 55 70 1.0 7.0 0.00 0.37 0.35 92 1015.4
20260507171306 54 133 0.0 7.0 0.00 0.37 0.35 94 1015.4
20260507170537 54 108 1.0 6.0 0.00 0.37 0.35 95 1015.4
20260507170303 53 58 0.0 2.0 0.00 0.37 0.35 96 1015.4
20260507165536 53 17 0.0 3.0 0.00 0.37 0.35 96 1015.5
20260507165030 53 139 0.0 3.0 0.00 0.37 0.35 97 1015.6
20260507164524 53 207 1.0 4.0 0.00 0.37 0.35 97 1015.6
20260507164024 53 69 1.0 6.0 0.00 0.37 0.35 98 1015.7
20260507163524 53 126 1.0 6.0 0.00 0.37 0.35 98 1015.7
20260507163024 52 117 0.0 2.0 0.00 0.37 0.35 98 1015.7
20260507162524 51 103 0.0 3.0 0.00 0.37 0.35 98 1015.7
20260507162025 51 104 1.0 3.0 0.00 0.37 0.35 98 1015.8
20260507161519 51 299 0.0 2.0 0.00 0.37 0.35 98 1015.8
20260507161240 51 299 0.0 1.0 0.00 0.37 0.35 98 1015.8
20260507160520 50 299 0.0 0.0 0.00 0.37 0.35 98 1015.8
20260507160015 50 299 0.0 0.0 0.00 0.37 0.35 98 1015.9
20260507155515 49 299 0.0 1.0 0.00 0.37 0.35 98 1015.9
20260507155016 49 299 0.0 2.0 0.00 0.37 0.35 98 1015.8
20260507154506 49 299 0.0 3.0 0.00 0.37 0.35 98 1015.7
20260507154006 49 299 0.0 3.0 0.01 0.37 0.35 98 1015.8
20260507153508 49 299 0.0 2.0 0.03 0.37 0.35 98 1015.7
20260507153231 49 299 0.0 0.0 0.05 0.37 0.35 97 1015.6
20260507152934 48 299 0.0 0.0 0.06 0.37 0.35 97 1015.6
20260507151941 48 299 0.0 1.0 0.06 0.37 0.35 97 1015.6
20260507151438 48 299 0.0 1.0 0.07 0.37 0.35 97 1015.6
20260507151410 48 299 0.0 0.0 0.07 0.37 0.35 97 1015.6
20260507150653 48 299 0.0 0.0 0.08 0.37 0.35 97 1015.5
20260507145916 48 299 0.0 1.0 0.08 0.37 0.35 97 1015.5
20260507145419 48 299 0.0 1.0 0.08 0.37 0.35 97 1015.5
20260507144912 48 299 0.0 0.0 0.08 0.37 0.35 97 1015.4
20260507144409 47 299 0.0 0.0 0.08 0.37 0.35 97 1015.5
20260507143856 47 299 0.0 0.0 0.06 0.35 0.34 97 1015.3
20260507143354 47 299 0.0 0.0 0.04 0.33 0.32 97 1015.3
20260507142852 47 299 0.0 0.0 0.03 0.32 0.30 97 1015.3
20260507142353 47 299 0.0 0.0 0.02 0.31 0.29 97 1015.4
20260507141852 47 299 0.0 0.0 0.02 0.31 0.29 97 1015.3
20260507141351 47 299 0.0 0.0 0.01 0.30 0.28 97 1015.3
20260507140842 47 299 0.0 0.0 0.01 0.30 0.28 97 1015.3
20260507140613 47 299 0.0 0.0 0.00 0.29 0.27 97 1015.1
20260507135843 47 299 0.0 0.0 0.00 0.29 0.27 97 1015.0
20260507135344 47 299 0.0 0.0 0.00 0.29 0.27 97 1014.9
20260507134838 47 299 0.0 0.0 0.00 0.29 0.27 97 1014.9
20260507134336 46 299 0.0 0.0 0.00 0.29 0.27 97 1014.9
20260507133828 46 299 0.0 0.0 0.00 0.29 0.27 97 1014.9
20260507133325 46 299 0.0 0.0 0.00 0.29 0.27 97 1014.8
20260507132813 46 299 0.0 0.0 0.00 0.29 0.27 97 1014.7
20260507132316 46 299 0.0 0.0 0.00 0.29 0.27 96 1014.7
20260507131816 46 299 0.0 0.0 0.00 0.29 0.27 96 1014.7
20260507131321 45 299 0.0 0.0 0.00 0.29 0.27 96 1014.7
20260507130809 45 299 0.0 0.0 0.00 0.29 0.27 96 1014.6
20260507130304 45 299 0.0 0.0 0.00 0.29 0.27 96 1014.4
20260507125759 45 299 0.0 0.0 0.00 0.29 0.27 96 1014.4
20260507125249 45 299 0.0 0.0 0.00 0.29 0.27 96 1014.4
20260507124748 45 299 0.0 0.0 0.00 0.29 0.27 96 1014.4
20260507124239 45 299 0.0 0.0 0.00 0.29 0.27 96 1014.3
20260507123740 45 299 0.0 0.0 0.00 0.29 0.27 96 1014.3
20260507123500 45 299 0.0 0.0 0.00 0.29 0.27 96 1014.3
20260507123224 45 299 0.0 0.0 0.00 0.29 0.27 96 1014.4
20260507122240 45 299 0.0 0.0 0.00 0.29 0.27 96 1014.3
20260507121741 45 299 0.0 0.0 0.00 0.29 0.27 96 1014.1
20260507121505 45 299 0.0 0.0 0.00 0.29 0.27 96 1014.1
20260507120728 45 299 0.0 0.0 0.00 0.29 0.27 96 1014.0
20260507120213 45 299 0.0 0.0 0.00 0.29 0.27 96 1014.0
20260507115711 45 299 0.0 0.0 0.00 0.29 0.27 96 1014.0
20260507115210 45 299 0.0 0.0 0.00 0.29 0.27 95 1013.9
20260507114710 45 299 0.0 0.0 0.00 0.29 0.27 95 1013.9
20260507114211 45 299 0.0 0.0 0.00 0.29 0.27 95 1014.0
20260507113937 45 299 0.0 0.0 0.00 0.29 0.27 95 1014.0
20260507113206 45 299 0.0 0.0 0.00 0.29 0.27 95 1013.9
20260507112702 45 299 0.0 0.0 0.00 0.29 0.27 95 1013.9
20260507112146 45 299 0.0 0.0 0.00 0.29 0.27 95 1013.9
20260507111644 45 299 0.0 0.0 0.00 0.29 0.27 95 1013.9
20260507111136 45 299 0.0 0.0 0.00 0.29 0.27 95 1013.9
20260507110637 45 299 0.0 0.0 0.00 0.29 0.27 95 1013.7
20260507110140 45 299 0.0 0.0 0.00 0.29 0.27 94 1013.8
20260507105637 45 299 0.0 0.0 0.00 0.29 0.27 94 1013.8
20260507105122 45 299 0.0 0.0 0.00 0.29 0.27 94 1013.8
20260507104836 45 299 0.0 0.0 0.00 0.29 0.27 94 1013.7
20260507104120 46 299 0.0 0.0 0.00 0.29 0.27 93 1013.6
20260507103611 46 299 0.0 0.0 0.00 0.29 0.27 94 1013.6
20260507103108 46 299 0.0 0.0 0.00 0.29 0.27 94 1013.6
20260507102607 46 299 0.0 0.0 0.00 0.29 0.27 94 1013.6
20260507102110 47 299 0.0 0.0 0.00 0.29 0.27 94 1013.6
20260507101806 47 299 0.0 0.0 0.00 0.29 0.27 94 1013.6
20260507101048 47 299 0.0 0.0 0.00 0.29 0.27 95 1013.7
20260507100549 47 299 0.0 0.0 0.00 0.29 0.27 95 1013.7
20260507100043 47 299 0.0 0.0 0.00 0.29 0.27 95 1013.7
20260507095538 47 299 0.0 0.0 0.00 0.29 0.27 94 1013.8
20260507095033 47 299 0.0 0.0 0.00 0.29 0.27 95 1013.8
20260507094532 48 299 0.0 0.0 0.00 0.29 0.27 95 1013.8
20260507094028 48 299 0.0 0.0 0.00 0.29 0.27 95 1013.8
20260507093515 48 299 0.0 0.0 0.00 0.29 0.27 94 1013.8
20260507093014 48 299 0.0 0.0 0.01 0.29 0.27 94 1013.8
20260507092813 48 299 0.0 0.0 0.04 0.29 0.27 95 1013.8
20260507092510 48 299 0.0 0.0 0.02 0.29 0.27 95 1013.8
20260507092445 48 299 0.0 0.0 0.05 0.29 0.27 95 1013.7
20260507091004 48 299 0.0 0.0 0.06 0.29 0.27 95 1013.6
20260507090500 48 299 0.0 0.0 0.07 0.29 0.27 95 1013.8
20260507090000 48 299 0.0 2.0 0.07 0.29 0.27 94 1013.6
20260507085455 49 299 0.0 2.0 0.08 0.29 0.27 94 1014.1
20260507084953 49 299 0.0 0.0 0.08 0.29 0.27 94 1014.4
20260507084656 49 299 0.0 0.0 0.10 0.29 0.27 94 1014.3
20260507083938 49 299 0.0 1.0 0.11 0.29 0.27 94 1014.1
20260507083652 49 299 0.0 2.0 0.12 0.29 0.27 94 1014.1
20260507082936 49 299 0.0 2.0 0.11 0.28 0.26 94 1014.5
20260507082707 49 299 0.0 2.0 0.10 0.26 0.24 94 1014.5
20260507081931 49 299 0.0 0.0 0.16 0.25 0.23 94 1014.9
20260507081432 49 299 0.0 0.0 0.21 0.23 0.22 94 1014.8
20260507081122 49 299 0.0 0.0 0.20 0.22 0.20 93 1014.6
20260507081011 49 299 0.0 0.0 0.21 0.23 0.21 94 1014.8
20260507075927 49 299 0.0 0.0 0.19 0.21 0.20 93 1014.5
20260507075425 49 299 0.0 0.0 0.19 0.21 0.19 93 1014.3
20260507074917 49 299 0.0 0.0 0.18 0.20 0.19 93 1014.3
20260507074413 49 299 0.0 0.0 0.17 0.19 0.17 92 1014.3
20260507073912 49 299 0.0 0.0 0.16 0.18 0.16 92 1014.0
20260507073412 49 299 0.0 3.0 0.15 0.17 0.16 92 1014.1
20260507072908 49 299 0.0 4.0 0.15 0.17 0.15 91 1014.1
20260507072452 49 322 1.0 4.0 0.12 0.14 0.13 91 1014.1
20260507071908 50 323 1.0 5.0 0.07 0.09 0.09 91 1014.0
20260507071403 49 316 1.0 5.0 0.00 0.02 0.00 91 1013.7
20260507070858 49 0 1.0 4.0 0.00 0.02 0.00 92 1013.8
20260507070359 49 279 0.0 2.0 0.00 0.02 0.00 92 1013.1
20260507065859 50 279 0.0 2.0 0.00 0.02 0.00 92 1012.6
20260507065359 50 279 0.0 2.0 0.00 0.02 0.00 91 1012.1
20260507064902 50 279 0.0 2.0 0.00 0.02 0.00 91 1011.9
20260507064349 50 279 0.0 0.0 0.00 0.02 0.00 91 1012.0
20260507063840 50 279 0.0 0.0 0.00 0.02 0.00 91 1012.1
20260507063333 50 279 0.0 1.0 0.00 0.02 0.00 91 1012.6
20260507062830 50 279 0.0 1.0 0.00 0.02 0.00 91 1012.5
20260507062330 50 279 0.0 1.0 0.00 0.02 0.00 91 1012.6
20260507061830 50 279 0.0 0.0 0.00 0.02 0.00 91 1012.6
20260507061548 50 279 0.0 0.0 0.00 0.02 0.00 91 1012.2
20260507060825 50 279 0.0 0.0 0.00 0.02 0.00 91 1012.6
20260507060321 50 279 0.0 0.0 0.00 0.02 0.00 90 1012.5
20260507060034 50 279 0.0 0.0 0.00 0.02 0.02 90 1012.4
20260507055524 51 279 0.0 1.0 0.00 0.02 0.02 90 1012.4
20260507054806 51 279 0.0 1.0 0.00 0.02 0.02 90 1012.2
20260507054305 51 279 0.0 0.0 0.00 0.02 0.02 89 1012.1
20260507053811 51 279 0.0 1.0 0.00 0.02 0.02 89 1012.0
20260507053302 51 279 0.0 1.0 0.00 0.02 0.02 88 1012.0
20260507052801 51 279 0.0 0.0 0.01 0.02 0.02 88 1011.9
20260507052306 52 279 0.0 0.0 0.02 0.02 0.02 87 1011.8
20260507051752 52 279 0.0 2.0 0.02 0.02 0.02 86 1011.8
20260507051253 52 279 0.0 2.0 0.02 0.02 0.02 85 1011.8
20260507051232 53 279 0.0 0.0 0.02 0.02 0.02 84 1011.8
20260507050247 53 279 0.0 3.0 0.02 0.02 0.02 83 1012.0
20260507045740 53 279 0.0 5.0 0.02 0.02 0.02 82 1012.0
20260507045237 53 296 2.0 5.0 0.02 0.02 0.02 80 1012.4
20260507044739 53 299 2.0 9.0 0.02 0.02 0.02 82 1012.0
20260507044238 53 9 2.0 9.0 0.02 0.02 0.02 80 1011.6
20260507043738 53 325 2.0 8.0 0.02 0.02 0.02 82 1011.8
20260507043238 53 5 2.0 8.0 0.02 0.02 0.02 81 1011.6
20260507042738 53 212 1.0 8.0 0.01 0.01 0.01 80 1011.5
20260507042234 53 330 2.0 8.0 0.00 0.00 0.00 73 1011.5
20260507041731 52 206 2.0 4.0 0.00 0.00 0.00 71 1011.6
20260507041447 52 292 0.0 2.0 0.00 0.00 0.00 76 1011.6
20260507040724 52 292 0.0 2.0 0.00 0.00 0.00 75 1011.4
20260507040701 52 292 0.0 1.0 0.00 0.00 0.00 74 1011.4
20260507035728 52 292 0.0 2.0 0.00 0.00 0.00 74 1011.5
20260507035429 52 292 0.0 2.0 0.00 0.00 0.00 74 1011.6
20260507034709 53 292 0.0 2.0 0.00 0.00 0.00 73 1011.5
20260507034159 53 292 0.0 2.0 0.00 0.00 0.00 73 1011.5
20260507033700 53 292 0.0 2.0 0.00 0.00 0.00 72 1011.4
20260507033200 53 292 0.0 2.0 0.00 0.00 0.00 71 1011.4
20260507032700 53 292 0.0 2.0 0.00 0.00 0.00 71 1011.4
20260507032422 54 292 0.0 1.0 0.00 0.00 0.00 70 1011.4
20260507031656 54 292 0.0 1.0 0.00 0.00 0.00 69 1011.4
20260507031158 55 292 0.0 2.0 0.00 0.00 0.00 68 1011.5
20260507030657 55 292 0.0 2.0 0.00 0.00 0.00 67 1011.5
20260507030416 56 292 0.0 0.0 0.00 0.00 0.00 66 1011.5
20260507025656 56 292 0.0 1.0 0.00 0.00 0.00 65 1011.5
20260507025157 57 292 0.0 2.0 0.00 0.00 0.00 64 1011.5
20260507024654 58 292 0.0 2.0 0.00 0.00 0.00 64 1011.5
20260507024151 58 292 0.0 0.0 0.00 0.00 0.00 61 1011.5
20260507023643 59 292 0.0 2.0 0.00 0.00 0.00 62 1011.5
20260507023136 60 292 0.0 2.0 0.00 0.00 0.00 61 1011.4
20260507022638 60 292 0.0 0.0 0.00 0.00 0.00 59 1011.4
20260507022137 60 292 0.0 0.0 0.00 0.00 0.00 60 1011.5
20260507021633 61 292 0.0 2.0 0.00 0.00 0.00 59 1011.5
20260507021346 61 292 0.0 3.0 0.00 0.00 0.00 58 1011.4
20260507020617 62 292 0.0 0.0 0.00 0.00 0.00 54 1011.2
20260507020110 62 292 0.0 0.0 0.00 0.00 0.00 53 1011.4
20260507015553 62 292 0.0 0.0 0.00 0.00 0.00 52 1011.2
20260507015321 62 292 0.0 1.0 0.00 0.00 0.00 51 1011.2
20260507015045 62 292 0.0 3.0 0.00 0.00 0.00 50 1011.2
20260507014052 62 322 1.0 6.0 0.00 0.00 0.00 49 1011.2
20260507013603 62 5 1.0 8.0 0.00 0.00 0.00 47 1011.2
20260507013054 63 273 3.0 8.0 0.00 0.00 0.00 47 1011.2
20260507012548 63 207 1.0 6.0 0.00 0.00 0.00 47 1011.4
20260507012311 63 248 1.0 3.0 0.00 0.00 0.00 47 1011.4
20260507011549 63 313 1.0 5.0 0.00 0.00 0.00 47 1011.5
20260507011313 63 326 2.0 5.0 0.00 0.00 0.00 46 1011.5
20260507010754 63 321 0.0 3.0 0.00 0.00 0.00 46 1011.6
20260507010024 64 321 0.0 4.0 0.00 0.00 0.00 47 1011.5
20260507005525 64 321 1.0 4.0 0.00 0.00 0.00 45 1011.5
20260507005248 64 334 1.0 4.0 0.00 0.00 0.00 45 1011.6
20260507004520 64 160 0.0 3.0 0.00 0.00 0.00 45 1011.5
20260507004020 64 195 0.0 7.0 0.00 0.00 0.00 46 1011.6
20260507003520 64 153 0.0 7.0 0.00 0.00 0.00 45 1011.7
20260507003023 64 0 0.0 7.0 0.00 0.00 0.00 44 1011.6
20260507002518 64 214 2.0 7.0 0.00 0.00 0.00 43 1011.6
20260507002008 64 319 1.0 6.0 0.00 0.00 0.00 44 1011.7
20260507001505 64 310 0.0 6.0 0.00 0.00 0.00 43 1011.6
20260507001006 64 340 0.0 7.0 0.00 0.00 0.00 43 1011.7
20260507000506 64 237 1.0 7.0 0.00 0.00 0.00 43 1011.7
20260507000008 64 196 1.0 6.0 0.00 0.00 0.00 45 1011.8
20260506235507 64 216 1.0 5.0 0.00 0.00 0.00 44 1011.9
20260506235231 64 336 0.0 2.0 0.00 0.00 0.00 44 1011.9
20260506234502 64 13 0.0 3.0 0.00 0.00 0.00 45 1011.9
20260506233952 64 19 0.0 3.0 0.00 0.00 0.00 43 1012.0
20260506233452 64 132 0.0 2.0 0.00 0.00 0.00 45 1011.9
20260506232951 64 132 0.0 4.0 0.00 0.00 0.00 43 1011.9
20260506232452 64 322 0.0 4.0 0.00 0.00 0.00 43 1012.0
20260506232223 64 346 0.0 3.0 0.00 0.00 0.00 43 1011.9
20260506231711 65 302 0.0 6.0 0.00 0.00 0.00 43 1012.0
20260506230948 65 329 1.0 6.0 0.00 0.00 0.00 41 1012.0
20260506230448 66 180 0.0 3.0 0.00 0.00 0.00 42 1012.1
20260506230215 66 191 0.0 3.0 0.00 0.00 0.00 40 1012.0
20260506225449 67 349 1.0 7.0 0.00 0.00 0.00 39 1012.2
20260506224943 67 339 0.0 7.0 0.00 0.00 0.00 39 1012.2
20260506224439 68 307 1.0 7.0 0.00 0.00 0.00 37 1012.2
20260506223923 68 321 1.0 7.0 0.00 0.00 0.00 39 1012.2
20260506223418 68 259 0.0 3.0 0.00 0.00 0.00 40 1012.1
20260506222913 67 267 0.0 3.0 0.00 0.00 0.00 41 1012.4
20260506222414 67 14 0.0 4.0 0.00 0.00 0.00 38 1012.4
20260506221916 67 17 0.0 4.0 0.00 0.00 0.00 37 1012.5
20260506221410 67 327 0.0 5.0 0.00 0.00 0.00 39 1012.7
20260506221124 67 327 1.0 5.0 0.00 0.00 0.00 38 1012.7
20260506220355 67 322 0.0 3.0 0.00 0.00 0.00 41 1012.8
20260506215854 67 322 0.0 4.0 0.00 0.00 0.00 39 1012.8
20260506215350 67 0 0.0 4.0 0.00 0.00 0.00 39 1012.8
20260506214850 67 334 1.0 6.0 0.00 0.00 0.00 38 1012.9
20260506214350 66 32 2.0 6.0 0.00 0.00 0.00 38 1013.0
20260506213850 66 323 2.0 5.0 0.00 0.00 0.00 39 1013.1
20260506213627 66 232 1.0 4.0 0.00 0.00 0.00 38 1013.3
20260506212848 66 33 0.0 4.0 0.00 0.00 0.00 39 1013.4
20260506212345 65 25 0.0 8.0 0.00 0.00 0.00 38 1013.4
20260506211841 65 40 1.0 8.0 0.00 0.00 0.00 39 1013.5
20260506211340 65 211 1.0 7.0 0.00 0.00 0.00 38 1013.5
20260506210841 65 196 1.0 7.0 0.00 0.00 0.00 39 1013.5
20260506210341 64 300 1.0 11.0 0.00 0.00 0.00 38 1013.6
20260506205341 64 148 2.0 8.0 0.00 0.00 0.00 38 1013.7
20260506204837 64 325 0.0 10.0 0.00 0.00 0.00 38 1013.8
20260506204337 64 150 1.0 10.0 0.00 0.00 0.00 39 1013.8
20260506203837 63 155 2.0 9.0 0.00 0.00 0.00 39 1014.0
20260506203337 63 126 4.0 9.0 0.00 0.00 0.00 38 1014.0
20260506203104 63 180 3.0 9.0 0.00 0.00 0.00 39 1014.1
20260506202337 63 144 1.0 10.0 0.00 0.00 0.00 38 1014.0
20260506201833 63 169 1.0 10.0 0.00 0.00 0.00 42 1014.0
20260506201328 62 304 1.0 9.0 0.00 0.00 0.00 39 1014.3
20260506200823 62 192 1.0 10.0 0.00 0.00 0.00 40 1014.3
20260506200322 62 263 2.0 10.0 0.00 0.00 0.00 39 1014.4
20260506195823 61 90 2.0 10.0 0.00 0.00 0.00 39 1014.5
20260506195541 61 199 1.0 11.0 0.00 0.00 0.00 39 1014.6
20260506194813 61 117 4.0 11.0 0.00 0.00 0.00 38 1014.5
20260506194313 62 211 2.0 8.0 0.00 0.00 0.00 40 1014.7
20260506193813 61 277 1.0 10.0 0.00 0.00 0.00 40 1014.7
20260506193303 61 335 1.0 12.0 0.00 0.00 0.00 41 1014.9
20260506192804 61 215 2.0 12.0 0.00 0.00 0.00 40 1015.0
20260506192307 60 174 1.0 9.0 0.00 0.00 0.00 40 1015.0
20260506191757 60 306 1.0 9.0 0.00 0.00 0.00 39 1015.1
20260506191255 60 105 3.0 8.0 0.00 0.00 0.00 39 1015.1
20260506190755 60 317 0.0 10.0 0.00 0.00 0.00 42 1015.1
20260506190249 60 352 2.0 10.0 0.00 0.00 0.00 42 1015.3
20260506185750 60 254 2.0 9.0 0.00 0.00 0.00 40 1015.3
20260506185250 59 240 2.0 7.0 0.00 0.00 0.00 41 1015.4
20260506184750 59 348 0.0 5.0 0.00 0.00 0.00 40 1015.5
20260506184251 59 312 2.0 5.0 0.00 0.00 0.00 42 1015.6
20260506184018 58 259 0.0 7.0 0.00 0.00 0.00 43 1015.7
20260506183250 58 211 1.0 7.0 0.00 0.00 0.00 41 1015.8
20260506182746 58 248 0.0 8.0 0.00 0.00 0.00 41 1015.9
20260506182241 58 348 3.0 8.0 0.00 0.00 0.00 41 1015.9
20260506182002 58 13 2.0 8.0 0.00 0.00 0.00 41 1016.0
20260506181241 58 257 2.0 7.0 0.00 0.00 0.00 41 1016.2
20260506180743 58 297 2.0 7.0 0.00 0.00 0.00 40 1016.2
20260506180242 58 0 1.0 5.0 0.00 0.00 0.00 41 1016.2
20260506180005 58 18 2.0 5.0 0.00 0.00 0.00 42 1016.3